Regional Weather Roundup
Issued by NWS

Home | Current Version | Previous Version | Text Only | Print | Product List | Glossary Off
Versions: 1 2 3 4 5 6 7 8 9 10 11 12 13 14 15 16 17 18 19 20 21 22 23 24 25 26 27 28 29 30 31 32 33 34 35 36 37 38 39 40 41 42 43 44 45 46 47 48 49 50

000
ASUS45 KABQ 011001
RWRNM
WEATHER ROUNDUP FOR NEW MEXICO
NATIONAL WEATHER SERVICE ALBUQUERQUE NM
400 AM MDT WED APR 01 2015

NOTE: "FAIR" MEANS FEW OR NO CLOUDS BELOW 12,000 FEET AGL WITH NO
       SIGNIFICANT WEATHER OR OBSTRUCTIONS TO VISION.

      THIS PRODUCT IS RELEASED AS TWO VERSIONS.  ONE VERSION NEAR
      THE TOP OF THE HOUR CONTAINING PRELIMINARY DATA FROM ALBUQUERQUE
      AND OTHER STATIONS.  A FINAL VERSION WITH ADDITIONAL DATA IS
      ISSUED ABOUT 10 MINUTES AFTER THE HOUR.

NMZ501-503-504-510>518-011100-
NORTHWEST PLATEAU/NORTHCENTRAL MOUNTAINS

CITY           SKY/WX    TMP DP  RH WIND       PRES   REMARKS
FARMINGTON     PTCLDY    48  24  39 N5        29.94F
SANTA FE       CLEAR     45  20  36 SE3       29.99F
TAOS           PTCLDY    32  18  55 N5        30.03S WCI  27

$$
NMZ402-403-502-505>509-011100-
WESTCENTRAL MOUNTAINS/SOUTHWEST MOUNTAINS

CITY           SKY/WX    TMP DP  RH WIND       PRES   REMARKS
GALLUP         MOCLDY    48  25  40 SW5       30.04F

$$
NMZ407-409-411-412-011100-
SOUTHERN DESERTS

CITY           SKY/WX    TMP DP  RH WIND       PRES   REMARKS
DEMING         CLEAR     50  43  77 W6        30.01F
HOLLOMAN AFB   CLEAR     58  41  52 SE12      29.94F
ALAMOGORDO     CLEAR     55  39  54 S10       29.96S
T OR C         CLEAR     53  40  61 CALM      29.98F

$$
NMZ519>523-011100-
CENTRAL VALLEYS/CENTRAL HIGHLANDS

CITY           SKY/WX    TMP DP  RH WIND       PRES   REMARKS
ALBUQUERQUE    CLEAR     50  25  37 SE12      29.99S
DOUBLE EAGLE   CLEAR     44  24  45 S9        30.00S
CLINES CORNERS CLEAR     46  32  58 SW16      30.01F
BELEN          FAIR      50  26  38 S6        29.98S
SOCORRO        NOT AVBL

$$
NMZ524>526-539-540-011100-
SOUTHCENTRAL MOUNTAINS

CITY           SKY/WX    TMP DP  RH WIND       PRES   REMARKS
RUIDOSO        NOT AVBL

$$
NMZ527>531-011100-
NORTHEAST HIGHLANDS/NORTHEAST PLAINS

CITY           SKY/WX    TMP DP  RH WIND       PRES   REMARKS
LAS VEGAS      CLEAR     46  19  34 S5        29.98F
RATON          CLEAR     40  21  46 N6        29.92F
CLAYTON        CLEAR     52  26  36 W9        29.84F

$$
NMZ532>537-011100-
EASTCENTRAL PLAINS

CITY           SKY/WX    TMP DP  RH WIND       PRES   REMARKS
TUCUMCARI      CLEAR     47  35  63 SW8       29.83F
CANNON AFB     NOT AVBL
CLOVIS AIRPORT CLEAR     48  37  66 W5        29.87F

$$
NMZ028-029-538-011100-
SOUTHEAST PLAINS

CITY           SKY/WX    TMP DP  RH WIND       PRES   REMARKS
ROSWELL        CLEAR     50  40  68 SE5       29.87F
ARTESIA        CLEAR     63  43  48 W20G28    29.85F
CARLSBAD       CLEAR     56  44  64 SE7       29.85F
HOBBS          MOCLDY    57  41  54 S10       29.91R


$$



USA.gov is the U.S. government's official web portal to all federal, state and local government web resources and services.